Simultaneous Nadir Overpasses (SNOs) Predictions

Prediction of SNOs between METOP-C and LANDSAT-8 Satellite Orbit:

Table of predicted SNOs for the next 14.0 days since TLE Epoch: 9/21/2019
Index Date (METOP-C) Time (METOP-C) Lat,Lon (METOP-C) SZA (METOP-C ) Date (LANDSAT-8) Time (LANDSAT-8) Lat,Lon (LANDSAT-8) SZA (LANDSAT-8 ) Distance(km) Time Diff (sec)
1 09/22/2019 02:15:47 81.14,-173.89 82.90 09/22/2019 02:16:31 81.14,-173.80 82.93 1.62 44
2 09/22/2019 03:06:27 -81.16, -5.97 97.01 09/22/2019 03:05:57 -81.16, -5.81 97.01 2.90 30
3 09/24/2019 21:50:09 81.14,-107.49 84.02 09/24/2019 21:50:47 81.14,-107.33 84.05 2.80 38
4 09/24/2019 22:40:48 -81.17, 60.86 95.85 09/24/2019 22:40:13 -81.17, 60.68 95.88 3.09 35
5 09/27/2019 17:24:29 81.15, -40.71 85.18 09/27/2019 17:25:02 81.14, -40.89 85.17 3.19 33
6 09/27/2019 18:15:09 -81.17, 127.31 94.72 09/27/2019 18:14:28 -81.17, 127.14 94.76 2.93 41
7 09/30/2019 12:58:51 81.15, 25.69 86.29 09/30/2019 12:59:18 81.14, 25.52 86.28 3.08 27
8 09/30/2019 13:49:31 -81.17,-166.25 93.61 09/30/2019 13:48:44 -81.17,-166.44 93.65 3.21 47
9 10/03/2019 08:33:14 81.14, 91.72 87.35 10/03/2019 08:33:34 81.14, 91.91 87.38 3.16 20




NCC Satellite Simultaneous Nadir Overpasses (SNOs) Prediction Service
